Theta_e
311 310 312 313 315 309 306 306 306 306 307 306 307 307 306 306 306 307 309 309 309 310 315 314 316 316 315 314 315 315 310 309 311 313 314 316 315 319 320 320 320 324 333 345 355
309 308 312 315 315 314 308 306 305 305 306 306 306 306 306 306 306 308 313 314 313 312 313 315 313 316 315 313 315 312 310 311 310 312 313 315 316 317 318 319 319 321 347 352 350
311 309 307 306 307 310 311 309 307 305 305 305 306 306 305 305 306 310 319 318 316 314 311 314 317 315 314 313 314 312 313 312 313 315 316 315 315 317 317 316 319 319 320 332 335
310 309 308 307 306 306 305 306 308 308 307 306 305 306 307 307 307 319 316 317 316 313 311 318 318 317 311 311 314 312 313 314 315 316 315 314 317 316 317 318 318 319 319 319 319
305 306 306 306 304 303 304 304 304 304 304 304 305 306 308 309 311 308 317 317 317 312 316 318 318 315 312 311 313 312 313 315 315 315 316 315 314 314 317 318 318 318 319 319 319
301 301 302 303 304 303 302 302 302 303 303 304 304 308 308 308 308 312 316 315 317 317 313 317 318 317 313 313 312 315 315 315 315 314 314 314 315 314 316 318 318 318 319 319 319
301 301 301 301 301 301 301 301 301 302 301 302 303 309 310 307 308 308 318 319 317 318 317 314 314 316 315 313 316 315 314 314 313 313 311 314 313 314 316 317 318 318 319 319 319
303 302 302 302 301 301 301 301 302 301 301 301 304 309 312 307 307 307 308 309 319 318 320 317 315 316 315 315 315 313 313 314 314 312 314 313 314 314 317 317 317 317 319 319 319
302 303 303 303 302 301 301 303 304 302 301 303 309 310 310 311 311 314 313 310 318 320 321 318 316 316 315 313 313 310 313 310 312 311 313 312 314 314 317 317 317 317 318 319 319
299 300 301 302 302 302 301 303 305 305 308 309 311 313 312 312 313 319 320 314 319 320 321 319 317 313 313 311 315 314 310 312 312 314 312 313 313 313 316 316 317 319 319 319 320
298 299 299 300 300 301 301 303 305 312 313 313 314 313 314 314 313 316 318 317 318 321 320 318 316 317 316 314 313 313 312 312 313 313 315 313 314 314 315 314 316 318 319 320 320
298 298 299 299 299 300 301 304 310 311 313 313 314 314 313 312 313 313 315 319 320 320 319 318 318 316 315 315 314 313 312 312 312 314 314 316 316 315 315 315 318 320 318 320 321
298 298 299 299 299 301 306 308 306 308 310 311 312 314 313 314 314 315 315 319 319 320 321 320 318 317 315 314 314 313 312 312 312 314 315 316 315 317 317 319 320 322 320 320 322
298 299 299 300 301 301 300 302 305 308 309 310 309 311 312 314 315 315 315 318 320 320 321 321 318 317 315 315 314 313 313 314 314 314 314 316 316 316 319 319 319 321 321 324 329
299 298 299 299 300 300 300 302 307 310 310 309 311 314 315 315 315 317 316 316 320 321 321 322 320 319 316 316 315 314 315 315 315 313 315 316 315 314 316 319 319 320 322 339 338
300 298 300 300 300 300 302 306 308 311 311 309 311 312 311 313 316 315 317 317 318 320 320 321 320 319 318 317 317 317 317 316 315 313 315 315 316 315 316 317 318 321 331 338 338
299 299 299 301 302 302 304 305 310 312 309 311 311 310 311 311 314 319 318 319 321 323 322 322 321 320 319 318 318 318 317 316 315 315 316 315 315 315 316 317 321 329 333 333 336
299 298 299 303 308 305 307 307 310 308 309 310 309 311 311 312 318 318 318 317 316 320 322 323 325 321 321 319 319 319 318 314 317 318 316 316 316 315 316 324 323 330 330 332 333
297 299 300 311 310 306 308 310 307 308 308 309 311 310 312 312 315 317 318 318 319 320 324 324 323 321 321 321 320 321 320 316 317 323 320 320 324 320 323 325 326 326 327 326 326
298 300 304 308 310 307 309 311 311 311 311 312 313 311 312 314 314 316 317 317 317 316 321 324 324 321 322 322 321 320 317 317 316 324 323 324 328 327 326 326 326 325 325 325 325
299 301 301 305 306 306 310 311 311 311 311 313 312 314 314 314 314 315 317 317 317 318 318 323 324 324 322 323 323 320 319 317 316 319 320 322 322 326 325 325 324 324 325 324 324
299 302 304 309 306 308 310 310 308 310 311 313 312 314 315 315 315 315 319 318 316 316 317 320 324 325 324 323 323 323 322 318 320 324 319 320 321 326 325 325 324 323 323 322 322
299 301 304 306 304 305 306 308 309 311 312 313 314 314 311 313 316 315 318 317 314 315 317 321 325 324 326 324 322 323 322 319 317 318 323 324 325 325 326 326 325 324 323 320 322
301 302 304 303 302 305 306 308 309 309 312 313 314 312 312 312 313 316 316 318 315 315 316 316 325 321 324 324 322 323 319 321 320 320 323 323 327 326 326 326 326 324 323 321 318
301 301 301 301 302 303 305 306 309 310 311 311 314 313 313 314 314 316 316 319 319 318 317 320 326 324 325 323 323 326 326 324 321 321 323 326 325 326 324 324 324 323 322 323 320
301 299 300 301 302 303 304 308 306 306 309 313 314 313 311 313 314 315 315 317 318 320 319 319 326 325 327 324 324 327 325 325 325 326 326 325 324 323 323 324 324 324 323 322 316
298 299 300 301 302 303 305 306 307 307 311 311 311 312 311 312 311 311 311 314 317 320 318 318 324 323 327 326 325 325 325 326 325 326 326 326 324 323 324 324 324 323 322 316 314
Wind_Speed
22 21 23 25 23 21 20 20 21 23 24 25 25 26 27 28 30 31 38 32 26 19 19 12 15 14 12 12 19 9 2 5 7 8 8 9 6 22 19 1 6 4 15 24 24
23 23 23 23 24 25 25 24 24 23 23 24 24 26 27 29 33 38 30 26 25 26 22 27 19 13 10 14 9 8 6 9 7 8 8 2 7 29 8 4 3 11 17 22 23
25 24 23 22 22 23 23 23 25 26 26 25 25 25 27 28 32 12 4 5 8 23 30 28 22 16 16 14 12 7 10 7 4 24 27 18 8 13 6 5 4 3 4 13 15
26 27 27 26 26 25 25 23 22 23 24 25 26 27 27 19 7 2 3 3 4 20 28 26 18 13 7 9 22 5 6 14 14 24 21 4 14 10 9 9 10 11 7 5 5
25 25 26 27 27 27 27 26 25 24 23 24 24 26 24 10 31 26 15 10 3 19 31 27 23 20 8 6 16 7 12 20 23 30 35 26 19 12 19 20 17 12 12 12 7
28 26 26 27 27 27 28 28 27 27 27 24 22 22 19 18 25 8 5 20 26 16 28 32 16 22 6 12 11 8 27 24 26 29 31 15 19 10 17 17 17 17 16 17 14
27 28 29 29 30 29 29 31 31 29 29 27 26 21 25 49 23 16 13 12 20 25 25 33 37 18 15 6 24 24 12 12 13 16 11 16 15 18 17 20 19 23 22 21 22
28 29 30 30 31 31 30 31 32 31 28 33 26 16 25 36 35 37 29 39 27 29 24 20 32 31 17 10 10 6 11 16 15 9 13 13 27 7 19 16 23 27 28 28 26
30 31 31 30 30 32 31 30 32 31 33 28 13 14 19 19 18 11 20 34 25 29 27 20 25 21 17 7 5 4 9 6 6 8 7 13 20 8 26 24 26 31 31 31 31
32 32 32 32 31 33 33 32 32 26 17 7 10 9 21 23 12 10 18 21 25 25 25 26 17 7 12 8 15 10 5 3 7 5 8 13 10 8 26 23 25 29 31 27 25
32 32 33 33 32 31 34 35 11 6 6 14 15 19 27 28 33 23 17 18 28 25 16 22 10 20 21 17 8 8 7 6 6 11 7 9 13 12 23 17 21 26 29 29 29
34 34 34 34 33 31 30 15 12 17 19 23 36 46 51 42 30 31 22 17 18 17 18 11 26 16 9 16 16 11 11 8 7 9 6 14 13 12 14 12 23 23 29 35 31
35 36 36 36 33 27 16 20 18 30 9 20 30 32 46 34 45 37 21 29 17 18 23 24 3 19 16 17 18 16 14 9 8 14 5 6 8 5 7 11 14 7 24 27 22
36 37 37 38 26 19 30 17 18 19 5 9 7 10 15 20 9 33 41 23 14 27 18 20 24 17 20 18 16 17 10 15 15 10 6 6 7 5 5 6 5 6 14 18 26
41 39 38 33 34 33 29 14 9 4 6 8 5 6 2 13 12 4 22 24 20 16 18 23 24 25 20 24 15 15 15 16 18 6 4 4 3 7 3 5 4 6 17 18 36
43 41 39 41 36 34 10 6 7 2 9 8 6 12 22 13 10 12 5 20 16 13 15 24 11 21 27 13 21 14 12 11 6 6 10 11 7 5 2 5 3 9 25 30 33
45 44 39 36 38 25 7 3 1 6 5 7 6 17 17 16 14 4 6 10 6 15 17 17 19 18 12 20 19 14 15 6 4 6 8 8 5 7 5 5 5 17 25 29 34
48 46 42 30 15 4 7 2 8 7 14 15 17 22 12 7 5 4 1 5 9 16 8 14 14 24 23 20 18 20 14 5 7 4 4 4 5 5 7 7 2 29 30 43 39
49 48 33 28 12 10 6 3 6 5 8 12 20 14 0 6 7 1 2 5 5 13 6 15 18 13 21 17 21 20 17 11 6 3 4 1 4 4 3 6 16 28 32 34 35
47 42 13 23 20 16 4 6 5 4 11 14 17 9 12 9 8 4 5 7 4 4 8 6 12 19 17 13 17 23 7 7 1 7 4 1 3 4 6 7 10 18 26 28 36
34 17 13 25 16 5 4 5 10 14 18 5 3 7 9 15 11 8 5 5 4 4 8 6 3 5 11 10 14 4 19 2 7 5 6 5 4 3 7 7 3 7 21 40 39
17 6 22 21 7 5 3 11 7 17 21 11 5 11 11 11 5 6 11 5 7 5 2 2 2 4 9 1 0 6 3 8 7 3 3 5 3 6 7 14 8 11 20 23 35
19 10 15 15 5 5 8 10 17 14 14 4 4 8 3 5 3 8 8 8 15 7 7 4 6 5 9 2 4 3 13 7 7 4 5 6 4 7 3 15 16 16 17 25 37
8 5 8 7 21 8 12 10 13 21 10 7 11 2 4 4 5 4 6 6 18 8 9 6 3 4 9 5 6 6 10 10 8 5 6 4 7 8 11 12 14 16 18 19 21
4 4 8 7 12 15 15 11 15 14 8 10 4 2 5 4 6 5 7 6 10 11 5 4 7 6 6 11 12 1 3 3 5 8 7 9 10 16 14 15 24 33 22 8 14
7 7 8 22 16 13 13 8 17 13 6 4 7 10 6 6 7 5 7 2 2 7 3 3 3 5 6 12 20 4 6 9 8 10 11 10 3 5 11 23 18 24 26 22 26
16 18 12 10 9 11 6 14 18 24 10 12 13 11 8 8 7 16 14 16 4 2 4 3 2 4 3 6 10 1 3 9 11 8 12 6 4 12 4 17 27 30 29 28 26
Wind_Direction
332 329 326 325 324 320 317 315 314 313 312 313 312 312 310 308 299 291 279 278 275 254 232 210 200 207 223 228 216 217 185 212 222 198 236 284 355 299 307 238 67 34 136 170 165
342 339 336 332 328 327 325 322 319 315 312 312 310 309 308 309 304 293 301 280 261 245 222 214 212 202 205 224 212 191 210 221 203 210 250 233 314 306 302 309 54 92 130 148 153
338 337 336 333 328 324 322 321 320 319 318 314 310 309 310 313 315 305 0 336 285 220 217 220 216 199 209 222 209 215 231 209 265 241 262 274 279 283 323 310 241 222 197 145 166
333 333 332 330 328 326 322 318 313 311 311 311 309 308 307 310 283 197 182 317 309 197 195 193 202 197 199 207 223 255 245 229 250 260 261 222 279 267 243 247 301 303 262 226 193
328 325 325 325 324 322 320 315 312 308 305 303 303 303 308 269 253 270 240 256 329 201 196 197 205 204 193 217 233 227 251 254 257 255 258 266 261 241 251 264 265 277 262 257 259
331 327 322 319 316 316 314 310 307 306 302 301 298 299 287 267 296 310 234 229 242 220 210 205 214 216 216 235 201 235 235 245 253 256 256 251 264 230 242 238 257 260 252 253 259
329 327 324 321 319 316 313 309 307 305 303 298 293 289 263 251 264 276 252 234 241 237 222 218 215 187 216 302 243 237 263 261 240 239 241 253 258 244 245 231 229 249 255 246 248
329 326 324 321 319 315 312 307 302 300 298 292 286 273 255 283 288 267 241 243 228 230 239 239 221 219 239 264 314 211 236 248 254 228 249 204 254 236 253 252 234 236 243 248 245
331 327 323 321 318 315 313 309 305 302 289 281 259 242 270 280 264 321 261 234 221 216 228 227 214 214 231 207 281 235 245 227 266 201 218 202 252 242 248 243 252 247 246 247 248
330 326 322 318 316 314 314 312 309 297 276 226 245 247 263 252 257 323 307 225 196 212 220 213 204 201 215 179 214 224 210 203 200 239 199 240 253 256 261 238 236 245 252 237 230
330 327 322 319 316 316 316 318 322 285 209 216 229 216 276 280 280 269 292 205 202 198 199 198 207 216 215 216 230 234 227 240 225 244 229 243 249 241 252 228 241 246 239 229 218
332 329 325 321 317 317 307 288 311 319 297 265 258 254 260 258 272 253 242 207 198 207 195 212 227 216 218 224 221 225 223 240 278 259 180 251 249 231 236 236 217 236 209 210 217
331 328 327 326 321 317 290 288 327 338 280 290 252 248 245 235 246 255 241 206 205 205 206 206 243 209 211 223 216 218 220 221 230 276 248 259 263 244 235 203 188 217 216 209 215
334 330 329 326 324 310 297 302 311 333 289 287 244 273 216 214 275 251 235 216 225 213 210 222 223 202 208 223 207 225 204 227 240 251 245 162 257 259 216 169 157 128 165 149 150
335 330 324 320 306 301 319 310 326 106 300 279 251 28 142 164 312 29 254 210 218 206 184 219 204 217 214 219 201 225 225 231 236 217 217 242 96 269 237 183 177 154 113 133 148
334 329 324 315 305 306 311 315 0 111 243 265 296 12 352 344 345 348 21 214 222 223 219 222 211 198 223 213 223 215 232 232 232 204 237 237 152 268 197 209 196 97 132 136 131
332 328 320 311 292 309 272 333 126 224 310 253 321 346 350 337 325 36 18 334 274 208 217 222 222 231 206 220 233 213 220 236 248 216 227 215 163 214 219 246 197 134 137 130 138
331 331 330 335 334 204 152 101 222 252 233 302 323 328 312 309 34 45 112 285 260 257 223 208 217 211 213 212 215 224 216 178 201 172 188 217 202 228 198 178 175 137 144 140 145
335 336 339 3 358 180 160 183 225 226 268 299 314 306 346 330 336 111 251 220 274 181 230 203 231 215 218 219 217 226 217 195 127 349 109 251 333 35 13 143 123 134 139 138 140
339 336 12 7 349 193 231 234 251 256 304 319 293 251 283 299 324 242 189 190 203 308 276 284 225 219 219 210 225 211 200 180 315 147 157 254 189 200 33 359 146 141 137 137 135
350 334 7 338 334 156 294 241 284 299 311 295 283 279 258 280 266 275 239 165 171 58 1 213 169 327 203 202 231 181 208 195 123 153 148 158 248 180 128 78 336 116 143 140 140
351 313 352 4 43 314 312 337 320 286 296 292 301 271 270 301 272 238 204 229 136 167 220 220 294 166 223 164 324 297 300 181 178 174 132 145 240 101 135 98 53 78 137 143 137
319 283 0 356 1 328 306 309 299 299 305 282 253 241 29 293 221 245 194 185 158 152 193 155 213 154 150 4 341 164 259 206 111 100 178 130 217 158 155 106 82 78 100 130 131
308 311 338 347 1 328 322 309 314 308 302 302 278 29 331 288 242 256 202 166 170 174 220 44 254 191 207 145 150 172 221 176 130 121 152 165 143 173 166 135 124 97 94 115 111
315 329 334 315 331 316 308 290 341 331 295 296 264 223 295 288 303 243 239 148 183 205 172 226 204 193 139 157 163 4 50 41 131 158 154 177 161 187 176 169 159 149 167 197 124
325 338 314 298 303 310 311 339 326 311 267 301 311 320 303 274 240 302 351 355 213 197 161 214 196 141 67 146 158 156 50 76 100 104 85 122 107 79 173 164 159 166 162 160 155
328 319 292 294 307 311 308 320 316 317 293 334 331 311 295 309 320 287 267 276 277 296 163 261 103 87 106 136 126 60 143 85 92 84 136 146 195 65 163 156 159 165 158 142 135